Location: *
(47.7167°N, 1.7333°W)
Time: 20:48:42
(UTC+00:00)

STARLINK-1230 - Pass Details

Date: 09 April 2020
Orbit: 548 x 551 km, 53.0° (Epoch: 27 May)

Event Time Altitude Azimuth Distance (km) Brightness Sun altitude
Rises 20:43:52 0° 297° (WNW) 2,735 8.8 -18.4°
Reaches altitude 10° 20:46:07 10° 296° (WNW) 1,838 7.5 -18.7°
Maximum altitude 20:50:18 80° 210° (SSW) 567 3.5 -19.3°
Enters shadow 20:51:14 52° 133° (SE) 690 3.7 -19.4°
